| time (UTC) | temp C | wind direction | speed KPH | gust KPH | rain 1hr cm | rain 24hr cm | rain mn cm | humidity % | barometer mb |
| 20260502151506 | 12 | 8 | 8.0 | 30.6 | 0.00 | 0.00 | 0.00 | 46 | 1016.2 |
| 20260502123006 | 13 | 11 | 14.5 | 27.4 | 0.00 | 0.00 | 0.00 | 45 | 1016.4 |
| 20260502114506 | 13 | 31 | 8.0 | 25.7 | 0.00 | 0.00 | 0.00 | 47 | 1016.5 |
| 20260502113007 | 13 | 338 | 16.1 | 33.8 | 0.00 | 0.00 | 0.00 | 48 | 1016.5 |
| 20260502111507 | 12 | 336 | 9.7 | 29.0 | 0.00 | 0.00 | 0.00 | 51 | 1016.7 |
| 20260502110006 | 12 | 8 | 6.4 | 25.7 | 0.00 | 0.00 | 0.00 | 54 | 1016.7 |
| 20260502103004 | 12 | 41 | 8.0 | 41.8 | 0.00 | 0.00 | 0.00 | 53 | 1017.2 |
| 20260502101506 | 12 | 345 | 14.5 | 25.7 | 0.00 | 0.00 | 0.00 | 55 | 1017.0 |
| 20260502091506 | 13 | 0 | 12.9 | 30.6 | 0.00 | 0.00 | 0.00 | 54 | 1017.0 |
| 20260502070000 | 12 | 0 | 9.7 | 29.0 | 0.00 | 0.00 | 0.00 | 55 | 1016.6 |
| 20260502064458 | 12 | 289 | 11.3 | 27.4 | 0.00 | 0.00 | 0.00 | 53 | 1016.6 |
| 20260502062958 | 12 | 7 | 8.0 | 32.2 | 0.00 | 0.00 | 0.00 | 55 | 1016.1 |
| 20260502055958 | 11 | 78 | 14.5 | 25.7 | 0.00 | 0.00 | 0.00 | 60 | 1016.3 |
| 20260502054457 | 11 | 0 | 4.8 | 22.5 | 0.00 | 0.00 | 0.00 | 65 | 1016.4 |
| 20260502045955 | 11 | 63 | 6.4 | 24.1 | 0.00 | 0.00 | 0.00 | 67 | 1016.8 |
| 20260502044501 | 10 | 293 | 9.7 | 24.1 | 0.00 | 0.00 | 0.00 | 67 | 1016.7 |
| 20260502041453 | 10 | 59 | 8.0 | 19.3 | 0.00 | 0.00 | 0.00 | 71 | 1016.6 |
| 20260502035955 | 10 | 0 | 6.4 | 20.9 | 0.00 | 0.00 | 0.00 | 74 | 1016.8 |
| 20260502034452 | 10 | 30 | 4.8 | 19.3 | 0.00 | 0.00 | 0.00 | 75 | 1016.8 |
| 20260502032954 | 10 | 353 | 4.8 | 25.7 | 0.00 | 0.00 | 0.00 | 72 | 1016.7 |
| 20260502031455 | 10 | 355 | 4.8 | 25.7 | 0.00 | 0.00 | 0.00 | 70 | 1016.4 |
| 20260502025954 | 10 | 23 | 4.8 | 22.5 | 0.00 | 0.00 | 0.00 | 69 | 1016.4 |
| 20260502024457 | 11 | 41 | 4.8 | 19.3 | 0.00 | 0.00 | 0.00 | 69 | 1016.6 |
| 20260502021453 | 11 | 350 | 4.8 | 22.5 | 0.00 | 0.00 | 0.00 | 68 | 1016.5 |
| 20260502020000 | 10 | 8 | 4.8 | 16.1 | 0.00 | 0.00 | 0.00 | 70 | 1016.6 |
| 20260502014455 | 10 | 32 | 6.4 | 16.1 | 0.00 | 0.00 | 0.00 | 72 | 1016.5 |
| 20260502012953 | 10 | 324 | 8.0 | 24.1 | 0.00 | 0.00 | 0.00 | 72 | 1016.7 |
| 20260502011455 | 10 | 25 | 3.2 | 16.1 | 0.00 | 0.00 | 0.00 | 72 | 1016.7 |
| 20260502005955 | 10 | 34 | 4.8 | 19.3 | 0.00 | 0.00 | 0.00 | 72 | 1016.7 |
| 20260502004458 | 10 | 34 | 8.0 | 20.9 | 0.00 | 0.00 | 0.00 | 72 | 1016.7 |
| 20260502002954 | 11 | 333 | 6.4 | 20.9 | 0.00 | 0.00 | 0.00 | 73 | 1016.8 |
| 20260502001453 | 10 | 298 | 8.0 | 16.1 | 0.00 | 0.00 | 0.00 | 73 | 1016.9 |
| 20260501235952 | 11 | 345 | 6.4 | 17.7 | 0.00 | 0.00 | 0.00 | 72 | 1017.1 |
| 20260501234452 | 11 | 338 | 9.7 | 17.7 | 0.00 | 0.00 | 0.00 | 72 | 1017.1 |
| 20260501232954 | 11 | 348 | 11.3 | 19.3 | 0.00 | 0.00 | 0.00 | 71 | 1017.3 |
| 20260501231451 | 11 | 354 | 6.4 | 17.7 | 0.00 | 0.00 | 0.00 | 70 | 1017.3 |
| 20260501225952 | 11 | 0 | 8.0 | 20.9 | 0.00 | 0.00 | 0.00 | 68 | 1017.4 |
| 20260501224455 | 11 | 38 | 4.8 | 14.5 | 0.00 | 0.00 | 0.00 | 68 | 1017.6 |
| 20260501222951 | 11 | 0 | 4.8 | 14.5 | 0.00 | 0.00 | 0.00 | 69 | 1018.0 |
| 20260501221451 | 11 | 4 | 4.8 | 17.7 | 0.00 | 0.00 | 0.00 | 69 | 1018.2 |
| 20260501214450 | 11 | 343 | 6.4 | 19.3 | 0.00 | 0.00 | 0.00 | 68 | 1018.2 |
| 20260501212949 | 11 | 13 | 6.4 | 16.1 | 0.00 | 0.00 | 0.00 | 68 | 1018.2 |
| 20260501211446 | 11 | 305 | 6.4 | 20.9 | 0.00 | 0.00 | 0.00 | 68 | 1018.4 |
| 20260501205950 | 11 | 13 | 6.4 | 24.1 | 0.00 | 0.00 | 0.00 | 68 | 1018.5 |
| 20260501204501 | 11 | 347 | 3.2 | 11.3 | 0.00 | 0.00 | 0.00 | 67 | 1018.6 |
| 20260501202950 | 11 | 16 | 9.7 | 19.3 | 0.00 | 0.00 | 0.00 | 68 | 1018.2 |
| 20260501201448 | 11 | 336 | 4.8 | 17.7 | 0.00 | 0.00 | 0.00 | 68 | 1018.1 |
| 20260501195951 | 11 | 354 | 3.2 | 22.5 | 0.00 | 0.00 | 0.00 | 69 | 1018.0 |
| 20260501194448 | 11 | 3 | 6.4 | 14.5 | 0.00 | 0.00 | 0.00 | 70 | 1018.1 |
| 20260501192949 | 11 | 44 | 6.4 | 16.1 | 0.00 | 0.00 | 0.00 | 69 | 1018.2 |
| 20260501191442 | 11 | 6 | 4.8 | 17.7 | 0.00 | 0.00 | 0.00 | 68 | 1018.2 |
| 20260501185939 | 11 | 347 | 3.2 | 22.5 | 0.00 | 0.00 | 0.00 | 69 | 1017.9 |
| 20260501184438 | 11 | 324 | 3.2 | 16.1 | 0.00 | 0.00 | 0.00 | 69 | 1018.0 |
| 20260501182935 | 11 | 18 | 4.8 | 17.7 | 0.00 | 0.00 | 0.00 | 69 | 1017.9 |
| 20260501181434 | 11 | 87 | 3.2 | 19.3 | 0.00 | 0.00 | 0.00 | 69 | 1017.8 |
| 20260501175930 | 12 | 0 | 3.2 | 24.1 | 0.00 | 0.00 | 0.00 | 68 | 1017.5 |
| 20260501174432 | 12 | 58 | 4.8 | 20.9 | 0.00 | 0.00 | 0.00 | 67 | 1017.5 |
| 20260501172930 | 12 | 34 | 8.0 | 22.5 | 0.00 | 0.00 | 0.00 | 68 | 1017.4 |
| 20260501171432 | 11 | 0 | 8.0 | 19.3 | 0.00 | 0.00 | 0.00 | 68 | 1017.5 |
| 20260501165932 | 11 | 336 | 11.3 | 24.1 | 0.00 | 0.00 | 0.00 | 69 | 1017.3 |
| 20260501164433 | 11 | 8 | 9.7 | 27.4 | 0.00 | 0.00 | 0.00 | 68 | 1016.9 |
| 20260501155930 | 12 | 75 | 8.0 | 22.5 | 0.00 | 0.00 | 0.00 | 69 | 1017.0 |